Location: Six Mile Lake
(44.9000°N, 79.7170°W)
Time: 00:30:50
(UTC-04:00)

JY1SAT - Pass Details

Date: 04 July 2022
Orbit: 564 x 586 km, 97.6° (Epoch: 17 August)

Event Time Altitude Azimuth Distance (km) Brightness Sun altitude
Exits shadow 22:51:41 19° 174° (S) 1,421 ? -14.0°
Maximum altitude 22:54:37 74° 258° (WSW) 614 ? -14.3°
Drops below altitude 10° 22:58:47 10° 344° (NNW) 1,919 ? -14.7°
Sets 23:00:57 0° 346° (NNW) 2,822 ? -14.9°
